Location: Berg
(47.2344°N, 9.5296°E)
Time: 13:45:34
(UTC+00:00)

Cosmos 44 - Pass Details

Date: 10 May 2021
Orbit: 571 x 791 km, 65.1° (Epoch: 11 June)

Event Time Altitude Azimuth Distance (km) Brightness Sun altitude
Rises 22:46:45 0° 318° (NW) 3,294 7.7 -24.5°
Reaches altitude 10° 22:49:18 10° 313° (NW) 2,352 6.7 -24.6°
Enters shadow 22:54:22 44° 244° (WSW) 1,062 4.0 -24.7°
